• In Russia
  • List of Countries
  • For 7 days
  • Water Temperature
  • Weather Map
  • Weather Widgets
  • user-avatar
    Login

    Hourly Weather Kotliska

    Today, 27 February, Thursday

    Time Temperature Precipitation Wind Pressure Humidity
    00:00 0°C° 0.2 mm 5 mps 738 mmHg 91%
    01:00 -1°C° 0 mm 6 mps 738 mmHg 88%
    02:00 -1°C° 0 mm 6 mps 739 mmHg 88%
    03:00 -2°C° 0 mm 6 mps 739 mmHg 88%
    04:00 -2°C° 0 mm 6 mps 739 mmHg 88%
    05:00 -2°C° 0 mm 6 mps 739 mmHg 87%
    06:00 -2°C° 0 mm 6 mps 740 mmHg 86%
    07:00 -1°C° 0 mm 5 mps 740 mmHg 85%
    08:00 -2°C° 0 mm 6 mps 740 mmHg 82%
    09:00 -1°C° 0 mm 6 mps 741 mmHg 80%
    10:00 -1°C° 0 mm 6 mps 741 mmHg 77%
    11:00 -1°C° 0 mm 6 mps 741 mmHg 74%
    12:00 +1°C° 0 mm 6 mps 741 mmHg 70%
    13:00 +1°C° 0 mm 6 mps 741 mmHg 67%
    14:00 +1°C° 0 mm 6 mps 741 mmHg 68%
    15:00 +1°C° 0 mm 5 mps 741 mmHg 68%
    16:00 +3°C° 0 mm 4 mps 740 mmHg 69%
    17:00 +2°C° 0 mm 3 mps 740 mmHg 73%
    18:00 +1°C° 0 mm 3 mps 740 mmHg 78%
    19:00 +1°C° 0 mm 2 mps 740 mmHg 82%
    20:00 +1°C° 0 mm 2 mps 740 mmHg 83%
    21:00 +1°C° 0 mm 2 mps 740 mmHg 84%
    22:00 +1°C° 0 mm 2 mps 740 mmHg 85%
    23:00 +1°C° 0 mm 2 mps 740 mmHg 85%

    Tomorrow, 28 February, Friday

    Time Temperature Precipitation Wind Pressure Humidity
    00:00 +2°C° 0 mm 1 mps 740 mmHg 85%
    01:00 +1°C° 0 mm 1 mps 740 mmHg 85%
    02:00 +1°C° 0 mm 1 mps 741 mmHg 85%
    03:00 +1°C° 0 mm 1 mps 741 mmHg 84%
    04:00 +1°C° 0 mm 0 mps 741 mmHg 84%
    05:00 +2°C° 0 mm 1 mps 741 mmHg 83%
    06:00 +2°C° 0 mm 1 mps 742 mmHg 83%
    07:00 +2°C° 0 mm 1 mps 743 mmHg 83%
    08:00 +1°C° 0 mm 2 mps 744 mmHg 84%
    09:00 +1°C° 0 mm 3 mps 744 mmHg 85%
    10:00 0°C° 0 mm 4 mps 745 mmHg 86%
    11:00 +1°C° 0.1 mm 4 mps 745 mmHg 79%
    12:00 +2°C° 0.1 mm 5 mps 746 mmHg 72%
    13:00 +3°C° 0.1 mm 5 mps 746 mmHg 65%
    14:00 +3°C° 0 mm 5 mps 747 mmHg 65%
    15:00 +3°C° 0 mm 6 mps 747 mmHg 65%
    16:00 +3°C° 0 mm 6 mps 748 mmHg 65%
    17:00 +2°C° 0 mm 5 mps 748 mmHg 69%
    18:00 +1°C° 0 mm 5 mps 748 mmHg 73%
    19:00 0°C° 0 mm 4 mps 749 mmHg 76%
    20:00 0°C° 0 mm 4 mps 749 mmHg 78%
    21:00 -1°C° 0 mm 4 mps 749 mmHg 80%
    22:00 -1°C° 0 mm 4 mps 749 mmHg 82%
    23:00 -1°C° 0 mm 4 mps 750 mmHg 84%

    Day after tomorrow, 29 February, Saturday

    Time Temperature Precipitation Wind Pressure Humidity
    00:00 -1°C° 0 mm 4 mps 750 mmHg 86%
    01:00 -1°C° 0 mm 4 mps 750 mmHg 89%
    02:00 -1°C° 0 mm 4 mps 750 mmHg 90%
    03:00 -2°C° 0 mm 4 mps 750 mmHg 91%
    04:00 -1°C° 0 mm 3 mps 749 mmHg 92%
    05:00 -1°C° 0 mm 3 mps 749 mmHg 91%
    06:00 -1°C° 0 mm 3 mps 749 mmHg 90%
    07:00 -1°C° 0 mm 3 mps 749 mmHg 90%
    08:00 0°C° 0 mm 4 mps 748 mmHg 81%
    09:00 +1°C° 0 mm 5 mps 748 mmHg 72%
    10:00 +2°C° 0 mm 6 mps 747 mmHg 63%
    11:00 +3°C° 0 mm 6 mps 746 mmHg 58%
    12:00 +4°C° 0 mm 6 mps 746 mmHg 54%
    13:00 +5°C° 0 mm 7 mps 745 mmHg 49%
    14:00 +4°C° 0 mm 7 mps 744 mmHg 51%
    15:00 +4°C° 0 mm 6 mps 743 mmHg 53%
    16:00 +4°C° 0 mm 6 mps 743 mmHg 54%
    17:00 +4°C° 0 mm 6 mps 742 mmHg 57%
    18:00 +4°C° 0 mm 6 mps 742 mmHg 60%
    19:00 +3°C° 0 mm 6 mps 742 mmHg 62%
    20:00 +3°C° 0 mm 6 mps 741 mmHg 63%
    21:00 +3°C° 0 mm 6 mps 741 mmHg 63%
    22:00 +3°C° 0 mm 6 mps 741 mmHg 64%
    23:00 +3°C° 0 mm 6 mps 741 mmHg 64%

    1 March, Sunday

    Time Temperature Precipitation Wind Pressure Humidity
    00:00 +3°C° 0 mm 6 mps 741 mmHg 65%
    01:00 +3°C° 0 mm 6 mps 741 mmHg 65%
    02:00 +3°C° 0.3 mm 6 mps 741 mmHg 71%
    03:00 +3°C° 0.3 mm 6 mps 741 mmHg 76%
    04:00 +3°C° 0.3 mm 6 mps 741 mmHg 81%
    05:00 +3°C° 0.1 mm 6 mps 741 mmHg 83%
    06:00 +3°C° 0.1 mm 5 mps 741 mmHg 85%
    07:00 +3°C° 0.1 mm 5 mps 741 mmHg 87%
    08:00 +4°C° 0 mm 6 mps 741 mmHg 82%
    09:00 +5°C° 0 mm 6 mps 741 mmHg 77%
    10:00 +5°C° 0 mm 6 mps 741 mmHg 72%
    11:00 +6°C° 0 mm 7 mps 741 mmHg 67%
    12:00 +8°C° 0 mm 7 mps 741 mmHg 63%
    13:00 +8°C° 0 mm 7 mps 741 mmHg 59%
    14:00 +8°C° 0.1 mm 7 mps 741 mmHg 59%
    15:00 +8°C° 0.1 mm 6 mps 740 mmHg 58%
    16:00 +8°C° 0.1 mm 6 mps 740 mmHg 57%
    17:00 +7°C° 0 mm 5 mps 740 mmHg 62%
    18:00 +6°C° 0 mm 5 mps 740 mmHg 68%
    19:00 +5°C° 0 mm 5 mps 740 mmHg 73%
    20:00 +5°C° 0 mm 5 mps 740 mmHg 74%
    21:00 +5°C° 0 mm 5 mps 740 mmHg 76%
    22:00 +3°C° 0 mm 5 mps 740 mmHg 77%
    23:00 +4°C° 0 mm 4 mps 740 mmHg 80%

    2 March, Monday

    Time Temperature Precipitation Wind Pressure Humidity
    00:00 +3°C° 0 mm 4 mps 740 mmHg 82%
    01:00 +3°C° 0 mm 3 mps 739 mmHg 84%
    02:00 +3°C° 0 mm 3 mps 739 mmHg 86%
    03:00 +2°C° 0 mm 3 mps 739 mmHg 87%
    04:00 +2°C° 0 mm 3 mps 738 mmHg 88%
    05:00 +2°C° 0 mm 3 mps 738 mmHg 89%
    06:00 +3°C° 0 mm 2 mps 738 mmHg 89%
    07:00 +3°C° 0 mm 2 mps 738 mmHg 90%
    08:00 +4°C° 0.2 mm 2 mps 737 mmHg 88%
    09:00 +5°C° 0.2 mm 2 mps 737 mmHg 86%
    10:00 +5°C° 0.2 mm 2 mps 736 mmHg 84%
    11:00 +5°C° 0.6 mm 2 mps 736 mmHg 87%
    12:00 +5°C° 0.6 mm 2 mps 736 mmHg 89%
    13:00 +5°C° 0.6 mm 2 mps 736 mmHg 92%
    14:00 +4°C° 0.3 mm 3 mps 736 mmHg 92%
    15:00 +4°C° 0.3 mm 4 mps 736 mmHg 91%
    16:00 +4°C° 0.3 mm 4 mps 736 mmHg 90%
    17:00 +4°C° 0.1 mm 4 mps 737 mmHg 89%
    18:00 +3°C° 0.1 mm 3 mps 737 mmHg 87%
    19:00 +2°C° 0.1 mm 3 mps 738 mmHg 86%
    20:00 +2°C° 0 mm 3 mps 738 mmHg 85%
    21:00 +2°C° 0 mm 3 mps 739 mmHg 83%
    22:00 +1°C° 0 mm 3 mps 740 mmHg 82%
    23:00 +1°C° 0 mm 3 mps 740 mmHg 82%

    3 March, Tuesday

    Time Temperature Precipitation Wind Pressure Humidity
    00:00 +1°C° 0 mm 3 mps 741 mmHg 82%
    01:00 +1°C° 0 mm 3 mps 741 mmHg 82%
    02:00 +1°C° 0 mm 3 mps 741 mmHg 84%
    03:00 0°C° 0 mm 3 mps 741 mmHg 85%
    04:00 0°C° 0 mm 3 mps 742 mmHg 86%
    05:00 0°C° 0 mm 3 mps 742 mmHg 85%
    06:00 0°C° 0 mm 3 mps 742 mmHg 85%
    07:00 0°C° 0 mm 3 mps 743 mmHg 84%
    08:00 +2°C° 0 mm 3 mps 743 mmHg 79%
    09:00 +4°C° 0 mm 3 mps 743 mmHg 73%
    10:00 +5°C° 0 mm 4 mps 744 mmHg 67%
    11:00 +6°C° 0 mm 4 mps 744 mmHg 64%
    12:00 +8°C° 0 mm 3 mps 744 mmHg 61%
    13:00 +9°C° 0 mm 3 mps 744 mmHg 57%
    14:00 +9°C° 0 mm 2 mps 744 mmHg 59%
    15:00 +9°C° 0 mm 1 mps 744 mmHg 60%
    16:00 +8°C° 0 mm 0 mps 744 mmHg 61%
    17:00 +9°C° 0 mm 1 mps 744 mmHg 64%
    18:00 +8°C° 0 mm 1 mps 744 mmHg 67%
    19:00 +7°C° 0 mm 1 mps 744 mmHg 71%
    20:00 +6°C° 0 mm 2 mps 744 mmHg 74%
    21:00 +6°C° 0 mm 2 mps 744 mmHg 78%
    22:00 +5°C° 0 mm 2 mps 744 mmHg 81%
    23:00 +5°C° 0.2 mm 2 mps 744 mmHg 84%
    Show more